Data No, UTC Date,UTC Time,Latitude,Longitude,Course(deg),Temp(degC),Sal(psu)
549,2021/10/14,9:08,42-36.88N,141-37.04E,210,17.353,32.7352
550,2021/10/14,9:09,42-36.65N,141-36.89E,198,17.215,32.6536
551,2021/10/14,9:10,42-36.38N,141-36.89E,172,17.101,32.5783
552,2021/10/14,9:11,42-36.14N,141-37.03E,151,17.065,32.2794
553,2021/10/14,9:12,42-35.90N,141-37.23E,146,17.118,32.1846
554,2021/10/14,9:13,42-35.66N,141-37.45E,145,17.199,32.2726
555,2021/10/14,9:14,42-35.42N,141-37.67E,146,17.418,32.4081
556,2021/10/14,9:15,42-35.17N,141-37.88E,147,17.54,32.7423
557,2021/10/14,9:16,42-34.91N,141-38.10E,148,17.636,32.9888
558,2021/10/14,9:17,42-34.67N,141-38.33E,137,17.662,33.258
559,2021/10/14,9:18,42-34.48N,141-38.66E,126,17.878,33.3724
560,2021/10/14,9:19,42-34.30N,141-38.98E,127,17.949,33.5244
561,2021/10/14,9:20,42-34.12N,141-39.32E,126,17.953,33.5835
562,2021/10/14,9:21,42-33.92N,141-39.67E,126,17.962,33.6146
563,2021/10/14,9:22,42-33.73N,141-40.02E,126,17.966,33.6295
564,2021/10/14,9:23,42-33.52N,141-40.38E,126,17.975,33.6309
565,2021/10/14,9:24,42-33.34N,141-40.73E,127,17.998,33.6377
566,2021/10/14,9:25,42-33.14N,141-41.08E,127,17.991,33.6434
567,2021/10/14,9:26,42-32.93N,141-41.44E,127,17.981,33.6529
568,2021/10/14,9:27,42-32.73N,141-41.80E,127,17.971,33.6475
569,2021/10/14,9:28,42-32.52N,141-42.16E,128,17.972,33.6477
570,2021/10/14,9:29,42-32.31N,141-42.53E,128,17.976,33.6533
571,2021/10/14,9:30,42-32.09N,141-42.89E,128,17.987,33.6499
572,2021/10/14,9:31,42-31.87N,141-43.27E,128,18.007,33.6595
573,2021/10/14,9:32,42-31.66N,141-43.64E,127,18.017,33.6719
574,2021/10/14,9:33,42-31.44N,141-44.03E,128,18.021,33.6798
575,2021/10/14,9:34,42-31.22N,141-44.40E,128,18.039,33.6894
576,2021/10/14,9:35,42-31.00N,141-44.78E,128,18.045,33.6964
577,2021/10/14,9:36,42-30.77N,141-45.17E,128,18.02,33.6979
578,2021/10/14,9:37,42-30.54N,141-45.55E,128,17.998,33.6889
579,2021/10/14,9:38,42-30.31N,141-45.94E,128,17.983,33.6567
580,2021/10/14,9:39,42-30.09N,141-46.32E,128,18.001,33.6258
581,2021/10/14,9:40,42-29.87N,141-46.71E,128,18.025,33.6169
582,2021/10/14,9:41,42-29.64N,141-47.10E,128,18.046,33.6286
583,2021/10/14,9:42,42-29.41N,141-47.48E,128,18.041,33.6421
584,2021/10/14,9:43,42-29.18N,141-47.87E,128,17.929,33.6598
585,2021/10/14,9:44,42-28.96N,141-48.24E,128,17.877,33.6654
586,2021/10/14,9:45,42-28.73N,141-48.63E,128,17.854,33.649
587,2021/10/14,9:46,42-28.50N,141-49.02E,128,17.85,33.6395
588,2021/10/14,9:47,42-28.28N,141-49.40E,128,17.88,33.6297
589,2021/10/14,9:48,42-28.01N,141-49.84E,128,17.877,33.6338
590,2021/10/14,9:49,42-27.79N,141-50.22E,128,17.881,33.6354
591,2021/10/14,9:50,42-27.56N,141-50.61E,128,17.881,33.6335
592,2021/10/14,9:51,42-27.33N,141-51.00E,128,17.895,33.6241
593,2021/10/14,9:52,42-27.11N,141-51.38E,129,17.93,33.6259
594,2021/10/14,9:53,42-26.87N,141-51.77E,128,17.905,33.6306
595,2021/10/14,9:54,42-26.64N,141-52.15E,129,17.906,33.6287
596,2021/10/14,9:55,42-26.41N,141-52.53E,129,17.902,33.6247
597,2021/10/14,9:56,42-26.21N,141-52.88E,128,17.91,33.6237
598,2021/10/14,9:57,42-25.99N,141-53.24E,129,17.941,33.6344
599,2021/10/14,9:58,42-25.75N,141-53.63E,129,17.956,33.6341
600,2021/10/14,9:59,42-25.53N,141-53.99E,129,17.985,33.6364
601,2021/10/14,10:00,42-25.30N,141-54.36E,129,18.006,33.6432
602,2021/10/14,10:01,42-25.07N,141-54.74E,129,18.044,33.6584
603,2021/10/14,10:02,42-24.84N,141-55.11E,129,18.064,33.6765
604,2021/10/14,10:03,42-24.61N,141-55.50E,130,18.089,33.691
605,2021/10/14,10:04,42-24.38N,141-55.87E,129,18.079,33.6995
606,2021/10/14,10:05,42-24.14N,141-56.24E,129,18.053,33.7211
607,2021/10/14,10:06,42-23.87N,141-56.69E,129,18.068,33.7418
608,2021/10/14,10:07,42-23.64N,141-57.05E,130,18.047,33.7481
609,2021/10/14,10:08,42-23.40N,141-57.44E,130,18.013,33.7429
610,2021/10/14,10:09,42-23.17N,141-57.80E,130,17.914,33.7474
611,2021/10/14,10:10,42-22.95N,141-58.17E,130,17.849,33.7504
612,2021/10/14,10:11,42-22.71N,141-58.55E,129,17.898,33.74
613,2021/10/14,10:12,42-22.49N,141-58.92E,129,17.969,33.7396
614,2021/10/14,10:13,42-22.25N,141-59.30E,129,18.001,33.7441
615,2021/10/14,10:14,42-22.02N,141-59.68E,129,17.937,33.7491
616,2021/10/14,10:15,42-21.82N,142-00.00E,130,17.804,33.7489
617,2021/10/14,10:16,42-21.58N,142-00.39E,129,17.748,33.7278
618,2021/10/14,10:17,42-21.35N,142-00.76E,129,17.778,33.7162
619,2021/10/14,10:18,42-21.11N,142-01.15E,129,17.977,33.7125
620,2021/10/14,10:19,42-20.88N,142-01.52E,130,18.057,33.7196
621,2021/10/14,10:20,42-20.64N,142-01.90E,130,18.14,33.7243
622,2021/10/14,10:21,42-20.40N,142-02.28E,130,18.175,33.7285
623,2021/10/14,10:22,42-20.17N,142-02.65E,130,18.187,33.7179
624,2021/10/14,10:23,42-19.93N,142-03.04E,130,18.177,33.7123
625,2021/10/14,10:24,42-19.69N,142-03.42E,129,18.183,33.696
626,2021/10/14,10:25,42-19.47N,142-03.78E,129,18.19,33.6881
627,2021/10/14,10:26,42-19.23N,142-04.17E,129,18.216,33.677
628,2021/10/14,10:27,42-19.00N,142-04.53E,130,18.238,33.6796
629,2021/10/14,10:28,42-18.76N,142-04.92E,129,18.218,33.6858
630,2021/10/14,10:29,42-18.53N,142-05.28E,130,18.175,33.692
631,2021/10/14,10:30,42-18.30N,142-05.66E,130,18.136,33.6855
632,2021/10/14,10:31,42-18.06N,142-06.03E,130,18.129,33.6993
633,2021/10/14,10:32,42-17.79N,142-06.45E,130,18.113,33.7043
634,2021/10/14,10:33,42-17.56N,142-06.83E,129,18.137,33.7083
635,2021/10/14,10:34,42-17.33N,142-07.21E,129,18.167,33.7159
636,2021/10/14,10:35,42-17.10N,142-07.58E,129,18.164,33.7129
637,2021/10/14,10:36,42-16.88N,142-07.97E,126,18.185,33.7079
638,2021/10/14,10:37,42-16.69N,142-08.37E,122,18.169,33.7023
639,2021/10/14,10:38,42-16.50N,142-08.79E,120,18.199,33.703
640,2021/10/14,10:39,42-16.33N,142-09.20E,119,18.204,33.7109
641,2021/10/14,10:40,42-16.16N,142-09.62E,119,18.196,33.715
642,2021/10/14,10:41,42-15.98N,142-10.05E,119,18.162,33.7303
643,2021/10/14,10:42,42-15.81N,142-10.46E,119,18.089,33.7369
644,2021/10/14,10:43,42-15.63N,142-10.89E,118,18.018,33.7389
645,2021/10/14,10:44,42-15.46N,142-11.31E,119,17.998,33.7395
646,2021/10/14,10:45,42-15.29N,142-11.74E,118,17.999,33.7307
647,2021/10/14,10:46,42-15.11N,142-12.17E,118,18,33.7211
648,2021/10/14,10:47,42-14.95N,142-12.58E,118,18.009,33.7138
649,2021/10/14,10:48,42-14.77N,142-13.02E,119,18.034,33.6998
650,2021/10/14,10:49,42-14.60N,142-13.44E,118,18.045,33.6958
651,2021/10/14,10:50,42-14.43N,142-13.87E,118,18.068,33.7047
652,2021/10/14,10:51,42-14.27N,142-14.24E,118,18.084,33.7145
653,2021/10/14,10:52,42-14.10N,142-14.66E,118,18.082,33.7173
654,2021/10/14,10:53,42-13.93N,142-15.08E,119,18.083,33.7237
655,2021/10/14,10:54,42-13.76N,142-15.51E,118,18.088,33.7277
656,2021/10/14,10:55,42-13.58N,142-15.93E,118,18.095,33.7333
657,2021/10/14,10:56,42-13.40N,142-16.36E,119,18.093,33.7353
658,2021/10/14,10:57,42-13.23N,142-16.78E,119,18.089,33.739
659,2021/10/14,10:58,42-13.06N,142-17.21E,118,18.09,33.7483
660,2021/10/14,10:59,42-12.89N,142-17.64E,118,18.1,33.7608
661,2021/10/14,11:00,42-12.72N,142-18.06E,118,18.1,33.7849
662,2021/10/14,11:01,42-12.54N,142-18.48E,119,18.131,33.7967
663,2021/10/14,11:02,42-12.37N,142-18.91E,118,18.263,33.8125
664,2021/10/14,11:03,42-12.20N,142-19.34E,118,18.44,33.8394
665,2021/10/14,11:04,42-12.02N,142-19.77E,118,18.451,33.9437
666,2021/10/14,11:05,42-11.85N,142-20.19E,118,18.448,33.9786
667,2021/10/14,11:06,42-11.67N,142-20.62E,119,18.448,34.0008
668,2021/10/14,11:07,42-11.50N,142-21.04E,118,18.418,34.006
669,2021/10/14,11:08,42-11.32N,142-21.47E,118,18.356,34.007
670,2021/10/14,11:09,42-11.15N,142-21.90E,119,18.304,34.0033
671,2021/10/14,11:10,42-10.97N,142-22.32E,119,18.306,33.9817
672,2021/10/14,11:11,42-10.79N,142-22.75E,119,18.279,33.9798
673,2021/10/14,11:12,42-10.62N,142-23.17E,119,18.261,33.9744
674,2021/10/14,11:13,42-10.44N,142-23.60E,119,18.197,33.9669
675,2021/10/14,11:14,42-10.27N,142-24.03E,118,18.248,33.9553
676,2021/10/14,11:15,42-10.10N,142-24.45E,118,18.352,33.9464
677,2021/10/14,11:16,42-09.92N,142-24.88E,119,18.358,33.9664
678,2021/10/14,11:17,42-09.75N,142-25.30E,118,18.382,33.9696
679,2021/10/14,11:18,42-09.58N,142-25.72E,119,18.376,33.9744
680,2021/10/14,11:19,42-09.40N,142-26.14E,119,18.343,33.9776
681,2021/10/14,11:20,42-09.23N,142-26.56E,118,18.308,33.9815
682,2021/10/14,11:21,42-09.05N,142-26.98E,119,18.268,33.9693
683,2021/10/14,11:22,42-08.88N,142-27.40E,119,18.236,33.9635
684,2021/10/14,11:23,42-08.71N,142-27.82E,119,18.193,33.9591
685,2021/10/14,11:24,42-08.52N,142-28.26E,119,18.125,33.9548
686,2021/10/14,11:25,42-08.35N,142-28.68E,119,18.081,33.9502
687,2021/10/14,11:26,42-08.15N,142-29.16E,118,18.102,33.9214
688,2021/10/14,11:27,42-07.97N,142-29.59E,119,18.089,33.8957
689,2021/10/14,11:28,42-07.79N,142-30.01E,118,18.087,33.857
690,2021/10/14,11:29,42-07.61N,142-30.43E,119,18.086,33.8003
691,2021/10/14,11:30,42-07.44N,142-30.85E,119,18.096,33.77
692,2021/10/14,11:31,42-07.25N,142-31.28E,119,18.076,33.7508
693,2021/10/14,11:32,42-07.10N,142-31.64E,119,18.021,33.7436
694,2021/10/14,11:33,42-06.92N,142-32.07E,119,17.961,33.7407
695,2021/10/14,11:34,42-06.73N,142-32.52E,119,17.914,33.7328
696,2021/10/14,11:35,42-06.56N,142-32.94E,118,17.836,33.7203
697,2021/10/14,11:36,42-06.38N,142-33.37E,119,17.864,33.7107
698,2021/10/14,11:37,42-06.21N,142-33.79E,119,17.712,33.7007
699,2021/10/14,11:38,42-06.04N,142-34.22E,118,17.527,33.6947
700,2021/10/14,11:39,42-05.86N,142-34.66E,117,17.502,33.6494
701,2021/10/14,11:40,42-05.69N,142-35.09E,118,17.876,33.6223
702,2021/10/14,11:41,42-05.51N,142-35.52E,118,17.934,33.6677
703,2021/10/14,11:42,42-05.34N,142-35.94E,118,17.932,33.7003
704,2021/10/14,11:43,42-05.16N,142-36.37E,118,17.915,33.7129
705,2021/10/14,11:44,42-04.98N,142-36.80E,118,17.928,33.7226
706,2021/10/14,11:45,42-04.81N,142-37.22E,118,17.952,33.7298
707,2021/10/14,11:46,42-04.63N,142-37.67E,119,17.954,33.732
708,2021/10/14,11:47,42-04.45N,142-38.09E,118,17.96,33.7323
709,2021/10/14,11:48,42-04.28N,142-38.51E,118,17.953,33.735
710,2021/10/14,11:49,42-04.11N,142-38.93E,119,17.931,33.7424
711,2021/10/14,11:50,42-03.93N,142-39.35E,118,17.849,33.7437
712,2021/10/14,11:51,42-03.76N,142-39.78E,118,17.174,33.7436
713,2021/10/14,11:52,42-03.58N,142-40.20E,118,17.07,33.6554
714,2021/10/14,11:53,42-03.41N,142-40.63E,118,17.604,33.5362
715,2021/10/14,11:54,42-03.23N,142-41.06E,118,17.839,33.5767
716,2021/10/14,11:55,42-03.06N,142-41.49E,118,17.901,33.7403
717,2021/10/14,11:56,42-02.88N,142-41.92E,118,17.898,33.7842
718,2021/10/14,11:57,42-02.70N,142-42.33E,119,17.845,33.8184
719,2021/10/14,11:58,42-02.53N,142-42.76E,118,17.648,33.8372
720,2021/10/14,11:59,42-02.36N,142-43.19E,118,17.146,33.8582
721,2021/10/14,12:00,42-02.19N,142-43.62E,118,16.974,33.7935
722,2021/10/14,12:01,42-02.00N,142-44.05E,119,16.951,33.7275
723,2021/10/14,12:02,42-01.83N,142-44.48E,119,17.081,33.7318
724,2021/10/14,12:03,42-01.65N,142-44.90E,118,17.135,33.7432
725,2021/10/14,12:04,42-01.47N,142-45.34E,118,17.295,33.7662
726,2021/10/14,12:05,42-01.30N,142-45.76E,118,17.558,33.7886
727,2021/10/14,12:06,42-01.12N,142-46.19E,118,17.643,33.8622
728,2021/10/14,12:07,42-00.95N,142-46.62E,119,17.579,33.8992
729,2021/10/14,12:08,42-00.77N,142-47.04E,118,17.361,33.9267
730,2021/10/14,12:09,42-00.59N,142-47.48E,118,17.516,33.8889
731,2021/10/14,12:10,42-00.42N,142-47.91E,118,17.617,33.8882
732,2021/10/14,12:11,42-00.24N,142-48.35E,118,17.629,33.9172
733,2021/10/14,12:12,42-00.07N,142-48.78E,118,17.628,33.93
734,2021/10/14,12:13,41-59.89N,142-49.21E,118,17.642,33.9333
735,2021/10/14,12:14,41-59.71N,142-49.64E,118,17.64,33.9374
736,2021/10/14,12:15,41-59.54N,142-50.07E,118,17.636,33.9393
737,2021/10/14,12:16,41-59.36N,142-50.51E,118,17.63,33.9402
738,2021/10/14,12:17,41-59.19N,142-50.93E,117,17.607,33.9431
739,2021/10/14,12:18,41-59.02N,142-51.36E,118,17.708,33.929
740,2021/10/14,12:19,41-58.84N,142-51.81E,118,17.791,33.9364
741,2021/10/14,12:20,41-58.67N,142-52.23E,118,17.835,33.953
742,2021/10/14,12:21,41-58.49N,142-52.68E,118,17.868,33.9733
743,2021/10/14,12:22,41-58.32N,142-53.10E,118,17.864,33.9909
744,2021/10/14,12:23,41-58.15N,142-53.54E,118,17.881,33.9967
745,2021/10/14,12:24,41-57.96N,142-53.98E,119,17.885,34.006
746,2021/10/14,12:25,41-57.78N,142-54.40E,120,17.887,34.0104
747,2021/10/14,12:26,41-57.59N,142-54.83E,120,17.885,34.0109
748,2021/10/14,12:27,41-57.40N,142-55.25E,120,17.861,34.0189
749,2021/10/14,12:28,41-57.21N,142-55.67E,120,17.827,34.0053
750,2021/10/14,12:29,41-57.02N,142-56.10E,120,17.813,34.0017
751,2021/10/14,12:30,41-56.84N,142-56.52E,121,17.806,33.9935
752,2021/10/14,12:31,41-56.64N,142-56.95E,121,17.799,33.9949
753,2021/10/14,12:32,41-56.46N,142-57.37E,121,17.774,33.9955
754,2021/10/14,12:33,41-56.27N,142-57.78E,121,17.69,33.9947
755,2021/10/14,12:34,41-56.07N,142-58.22E,121,17.631,33.9831
756,2021/10/14,12:35,41-55.88N,142-58.64E,121,17.571,33.9722
757,2021/10/14,12:36,41-55.69N,142-59.06E,121,17.62,33.9576
758,2021/10/14,12:37,41-55.49N,142-59.49E,121,17.64,33.9646
759,2021/10/14,12:38,41-55.30N,142-59.92E,121,17.691,33.9747
760,2021/10/14,12:39,41-55.09N,143-00.36E,121,17.728,33.9847
761,2021/10/14,12:40,41-54.90N,143-00.79E,120,17.706,33.984
762,2021/10/14,12:41,41-54.71N,143-01.22E,121,17.689,33.9854
763,2021/10/14,12:42,41-54.51N,143-01.66E,121,17.679,33.9785
764,2021/10/14,12:43,41-54.32N,143-02.08E,121,17.648,33.9799
765,2021/10/14,12:44,41-54.12N,143-02.52E,121,17.642,33.9699
766,2021/10/14,12:45,41-53.92N,143-02.94E,121,17.605,33.968
767,2021/10/14,12:46,41-53.73N,143-03.37E,121,17.604,33.9723
768,2021/10/14,12:47,41-53.53N,143-03.80E,122,17.639,33.9703
769,2021/10/14,12:48,41-53.34N,143-04.22E,120,17.629,33.9679
770,2021/10/14,12:49,41-53.15N,143-04.66E,120,17.577,33.9645
771,2021/10/14,12:50,41-52.97N,143-05.09E,119,17.598,33.9628
772,2021/10/14,12:51,41-52.78N,143-05.52E,119,17.557,33.9595
773,2021/10/14,12:52,41-52.60N,143-05.96E,120,17.437,33.9557
774,2021/10/14,12:53,41-52.41N,143-06.38E,119,17.345,33.9392
775,2021/10/14,12:54,41-52.22N,143-06.81E,120,17.193,33.9191
776,2021/10/14,12:55,41-52.04N,143-07.22E,120,17.11,33.8766
777,2021/10/14,12:56,41-51.85N,143-07.65E,120,16.928,33.8677
778,2021/10/14,12:57,41-51.64N,143-08.14E,120,16.907,33.8321
779,2021/10/14,12:58,41-51.45N,143-08.56E,120,16.993,33.7924
780,2021/10/14,12:59,41-51.26N,143-08.99E,120,16.889,33.7905
781,2021/10/14,13:00,41-51.08N,143-09.41E,119,16.742,33.8021
782,2021/10/14,13:01,41-50.89N,143-09.84E,120,16.799,33.7587
783,2021/10/14,13:02,41-50.71N,143-10.28E,117,16.303,33.7507
784,2021/10/14,13:03,41-50.58N,143-10.67E,112,16.2,33.7074
785,2021/10/14,13:04,41-50.46N,143-11.13E,107,16.252,33.6275
786,2021/10/14,13:05,41-50.36N,143-11.60E,103,15.767,33.6245
787,2021/10/14,13:06,41-50.30N,143-12.08E,99,15.103,33.5903
788,2021/10/14,13:07,41-50.24N,143-12.59E,98,14.979,33.4192
789,2021/10/14,13:08,41-50.19N,143-13.08E,96,14.93,33.3337
790,2021/10/14,13:09,41-50.15N,143-13.58E,96,14.926,33.3102
791,2021/10/14,13:10,41-50.10N,143-14.07E,96,14.927,33.2975
792,2021/10/14,13:11,41-50.06N,143-14.56E,96,14.937,33.3002
793,2021/10/14,13:12,41-50.01N,143-15.06E,97,14.971,33.3085
794,2021/10/14,13:13,41-49.97N,143-15.55E,97,14.98,33.317
795,2021/10/14,13:14,41-49.92N,143-16.05E,95,14.985,33.3204
796,2021/10/14,13:15,41-49.90N,143-16.54E,91,14.993,33.32
797,2021/10/14,13:16,41-49.91N,143-17.05E,86,14.928,33.326
798,2021/10/14,13:17,41-49.95N,143-17.55E,81,14.813,33.3307
799,2021/10/14,13:18,41-50.03N,143-18.02E,75,14.557,33.3308
800,2021/10/14,13:19,41-50.16N,143-18.50E,68,14.392,33.3032
801,2021/10/14,13:20,41-50.32N,143-18.95E,62,14.296,33.2537
802,2021/10/14,13:21,41-50.52N,143-19.37E,54,14.279,33.2173
803,2021/10/14,13:22,41-50.77N,143-19.76E,45,14.324,33.21
804,2021/10/14,13:23,41-51.05N,143-20.08E,39,14.355,33.2103
805,2021/10/14,13:24,41-51.36N,143-20.37E,32,14.392,33.2139
806,2021/10/14,13:25,41-51.68N,143-20.63E,30,14.417,33.2302
807,2021/10/14,13:26,41-52.01N,143-20.87E,29,14.448,33.2354
808,2021/10/14,13:27,41-52.34N,143-21.13E,29,14.522,33.2323
809,2021/10/14,13:28,41-52.67N,143-21.38E,30,14.558,33.2558
810,2021/10/14,13:29,41-53.00N,143-21.63E,29,14.585,33.2801
811,2021/10/14,13:30,41-53.32N,143-21.88E,29,14.617,33.2924
812,2021/10/14,13:31,41-53.64N,143-22.13E,29,14.628,33.3047
813,2021/10/14,13:32,41-53.97N,143-22.38E,30,14.62,33.3081
814,2021/10/14,13:33,41-54.29N,143-22.62E,29,14.604,33.3115
815,2021/10/14,13:34,41-54.62N,143-22.87E,29,14.564,33.3074
816,2021/10/14,13:35,41-54.93N,143-23.12E,29,14.547,33.2979
817,2021/10/14,13:36,41-55.26N,143-23.37E,30,14.55,33.2894
818,2021/10/14,13:37,41-55.58N,143-23.62E,30,14.535,33.2746
819,2021/10/14,13:38,41-55.90N,143-23.86E,28,14.476,33.2619
820,2021/10/14,13:39,41-56.23N,143-24.11E,29,14.466,33.2544
821,2021/10/14,13:40,41-56.54N,143-24.36E,30,14.487,33.2372
822,2021/10/14,13:41,41-56.86N,143-24.61E,29,14.514,33.231
823,2021/10/14,13:42,41-57.19N,143-24.86E,30,14.51,33.2147
824,2021/10/14,13:43,41-57.50N,143-25.11E,30,14.527,33.1989
825,2021/10/14,13:44,41-57.83N,143-25.37E,29,14.57,33.1951
826,2021/10/14,13:45,41-58.16N,143-25.61E,29,14.583,33.1911
827,2021/10/14,13:46,41-58.49N,143-25.86E,29,14.571,33.1901
828,2021/10/14,13:47,41-58.82N,143-26.11E,29,14.567,33.19
829,2021/10/14,13:48,41-59.14N,143-26.36E,28,14.59,33.1802
830,2021/10/14,13:49,41-59.48N,143-26.61E,29,14.588,33.1858
831,2021/10/14,13:50,41-59.80N,143-26.86E,30,14.578,33.1933
832,2021/10/14,13:51,42-00.12N,143-27.12E,32,14.568,33.1989
833,2021/10/14,13:52,42-00.44N,143-27.42E,35,14.552,33.1962
834,2021/10/14,13:53,42-00.74N,143-27.71E,36,14.565,33.1979
835,2021/10/14,13:54,42-01.04N,143-28.03E,38,14.584,33.1938
836,2021/10/14,13:55,42-01.33N,143-28.35E,39,14.573,33.1991
837,2021/10/14,13:56,42-01.62N,143-28.68E,39,14.595,33.2137
838,2021/10/14,13:57,42-01.91N,143-29.01E,39,14.593,33.2189
839,2021/10/14,13:58,42-02.20N,143-29.32E,38,14.53,33.2218
840,2021/10/14,13:59,42-02.49N,143-29.65E,39,14.521,33.2154
841,2021/10/14,14:00,42-02.78N,143-29.96E,39,14.535,33.214
842,2021/10/14,14:01,42-03.07N,143-30.28E,38,14.551,33.2163
843,2021/10/14,14:02,42-03.37N,143-30.59E,37,14.562,33.2168
844,2021/10/14,14:03,42-03.67N,143-30.88E,34,14.541,33.2183
845,2021/10/14,14:04,42-03.99N,143-31.17E,33,14.528,33.226
846,2021/10/14,14:05,42-04.29N,143-31.45E,32,14.532,33.2232
847,2021/10/14,14:06,42-04.60N,143-31.74E,34,14.533,33.2275
848,2021/10/14,14:07,42-04.92N,143-32.03E,33,14.518,33.2279
849,2021/10/14,14:08,42-05.22N,143-32.31E,34,14.509,33.2282
850,2021/10/14,14:09,42-05.54N,143-32.60E,34,14.516,33.2358
851,2021/10/14,14:10,42-05.85N,143-32.87E,30,14.515,33.2341
852,2021/10/14,14:11,42-06.17N,143-33.11E,29,14.524,33.2343
853,2021/10/14,14:12,42-06.50N,143-33.35E,28,14.521,33.236
854,2021/10/14,14:13,42-06.83N,143-33.58E,28,14.525,33.2339
855,2021/10/14,14:14,42-07.15N,143-33.84E,31,14.518,33.2395
856,2021/10/14,14:15,42-07.46N,143-34.08E,28,14.522,33.2446
857,2021/10/14,14:16,42-07.79N,143-34.33E,31,14.523,33.2414
858,2021/10/14,14:17,42-08.11N,143-34.59E,28,14.519,33.2443
859,2021/10/14,14:18,42-08.44N,143-34.81E,26,14.518,33.2486
860,2021/10/14,14:19,42-08.77N,143-35.06E,28,14.52,33.2478
861,2021/10/14,14:20,42-09.09N,143-35.29E,28,14.506,33.2553
862,2021/10/14,14:21,42-09.41N,143-35.54E,30,14.489,33.2571
863,2021/10/14,14:22,42-09.74N,143-35.80E,30,14.453,33.2574
864,2021/10/14,14:23,42-10.05N,143-36.05E,30,14.436,33.2559
865,2021/10/14,14:24,42-10.38N,143-36.31E,30,14.413,33.2577
866,2021/10/14,14:25,42-10.71N,143-36.55E,28,14.416,33.25
867,2021/10/14,14:26,42-11.03N,143-36.80E,30,14.467,33.2417
868,2021/10/14,14:27,42-11.36N,143-37.07E,31,14.521,33.2273
869,2021/10/14,14:28,42-11.67N,143-37.33E,29,14.607,33.2185
870,2021/10/14,14:29,42-12.00N,143-37.58E,29,14.668,33.2109
871,2021/10/14,14:30,42-12.33N,143-37.82E,28,14.721,33.2075
872,2021/10/14,14:31,42-12.66N,143-38.08E,31,14.737,33.1995
873,2021/10/14,14:32,42-12.98N,143-38.35E,30,14.749,33.1989
874,2021/10/14,14:33,42-13.30N,143-38.60E,29,14.757,33.1941
875,2021/10/14,14:34,42-13.63N,143-38.86E,31,14.756,33.194
876,2021/10/14,14:35,42-13.94N,143-39.13E,32,14.737,33.1971
877,2021/10/14,14:36,42-14.26N,143-39.39E,30,14.743,33.2051
878,2021/10/14,14:37,42-14.60N,143-39.64E,27,14.744,33.2118
879,2021/10/14,14:38,42-14.92N,143-39.87E,26,14.657,33.211
880,2021/10/14,14:39,42-15.25N,143-40.11E,29,14.619,33.2199
881,2021/10/14,14:40,42-15.58N,143-40.35E,27,14.622,33.2315
882,2021/10/14,14:41,42-15.91N,143-40.57E,25,14.628,33.2267
883,2021/10/14,14:42,42-16.25N,143-40.80E,29,14.649,33.2189
884,2021/10/14,14:43,42-16.57N,143-41.05E,29,14.672,33.217
885,2021/10/14,14:44,42-16.90N,143-41.29E,28,14.584,33.2227
886,2021/10/14,14:45,42-17.23N,143-41.52E,27,14.376,33.2371
887,2021/10/14,14:46,42-17.55N,143-41.74E,27,14.363,33.2491
888,2021/10/14,14:47,42-17.88N,143-41.97E,27,14.426,33.2286
889,2021/10/14,14:48,42-18.21N,143-42.19E,27,14.466,33.1924
890,2021/10/14,14:49,42-18.54N,143-42.43E,27,14.553,33.1541
891,2021/10/14,14:50,42-18.88N,143-42.65E,25,14.645,33.1065
892,2021/10/14,14:51,42-19.20N,143-42.87E,25,14.717,33.0642
893,2021/10/14,14:52,42-19.54N,143-43.10E,25,14.857,33.0376
894,2021/10/14,14:53,42-19.88N,143-43.31E,25,14.96,33.0146
895,2021/10/14,14:54,42-20.21N,143-43.52E,26,15.031,32.9956
896,2021/10/14,14:55,42-20.55N,143-43.75E,25,15.068,32.9765
897,2021/10/14,14:56,42-20.88N,143-43.96E,25,15.067,32.9687
898,2021/10/14,14:57,42-21.22N,143-44.18E,24,15.125,32.9672
899,2021/10/14,14:58,42-21.55N,143-44.39E,25,15.149,32.9567
900,2021/10/14,14:59,42-21.88N,143-44.61E,25,15.16,32.9519
901,2021/10/14,15:00,42-22.22N,143-44.82E,25,15.144,32.9419
902,2021/10/14,15:01,42-22.55N,143-45.03E,25,15.089,32.9346
903,2021/10/14,15:02,42-22.89N,143-45.24E,24,15.018,32.9256
904,2021/10/14,15:03,42-23.22N,143-45.45E,25,15.002,32.9339
905,2021/10/14,15:04,42-23.55N,143-45.67E,25,15.006,32.9489
906,2021/10/14,15:05,42-23.89N,143-45.90E,25,14.947,32.9589
907,2021/10/14,15:06,42-24.22N,143-46.11E,26,14.919,32.9869
908,2021/10/14,15:07,42-24.56N,143-46.33E,25,14.897,33.0155
909,2021/10/14,15:08,42-24.88N,143-46.55E,26,14.769,33.0293
910,2021/10/14,15:09,42-25.22N,143-46.77E,25,14.351,33.0449
911,2021/10/14,15:10,42-25.55N,143-46.99E,25,14.292,33.0675
912,2021/10/14,15:11,42-25.93N,143-47.23E,25,14.292,33.0634
913,2021/10/14,15:12,42-26.27N,143-47.46E,25,14.29,33.0624
914,2021/10/14,15:13,42-26.59N,143-47.68E,27,14.315,33.0609
915,2021/10/14,15:14,42-26.92N,143-47.90E,27,14.388,33.0581
916,2021/10/14,15:15,42-27.25N,143-48.13E,26,14.47,33.0694
917,2021/10/14,15:16,42-27.58N,143-48.35E,26,14.55,33.0761
918,2021/10/14,15:17,42-27.91N,143-48.57E,25,14.597,33.0733
919,2021/10/14,15:18,42-28.24N,143-48.78E,26,14.634,33.0626
920,2021/10/14,15:19,42-28.58N,143-49.02E,27,14.602,33.0386
921,2021/10/14,15:20,42-28.92N,143-49.25E,26,14.449,33.0087
922,2021/10/14,15:21,42-29.25N,143-49.46E,25,14.484,32.9831
923,2021/10/14,15:22,42-29.59N,143-49.69E,27,14.668,32.961
924,2021/10/14,15:23,42-29.92N,143-49.92E,27,14.786,32.9382
925,2021/10/14,15:24,42-30.24N,143-50.16E,28,14.877,32.9247
926,2021/10/14,15:25,42-30.58N,143-50.41E,28,14.951,32.9192
927,2021/10/14,15:26,42-30.90N,143-50.64E,28,14.961,32.9141
928,2021/10/14,15:27,42-31.24N,143-50.88E,28,14.875,32.9185
929,2021/10/14,15:28,42-31.51N,143-51.09E,30,14.818,32.9237
930,2021/10/14,15:29,42-31.83N,143-51.36E,32,14.818,32.9473
931,2021/10/14,15:30,42-32.17N,143-51.69E,34,14.814,32.979
932,2021/10/14,15:31,42-32.47N,143-51.98E,35,14.853,33.0248
933,2021/10/14,15:32,42-32.78N,143-52.28E,36,14.9,33.0487
934,2021/10/14,15:33,42-33.04N,143-52.53E,36,14.902,33.0357
935,2021/10/14,15:34,42-33.35N,143-52.84E,35,14.901,33.0329
936,2021/10/14,15:35,42-33.70N,143-53.16E,34,14.859,33.0438
937,2021/10/14,15:36,42-34.00N,143-53.46E,36,14.862,33.0619
938,2021/10/14,15:37,42-34.31N,143-53.76E,36,14.865,33.0785